SARAL

Satellite information

Favourite Embed

Satellite Type and Status

PAYLOADIN ORBIT

Key statistics

Satellite SARAL at a glance.

Uptime

4515

Days in orbit

Revolutions

≈ 14.3

Per day

Orbit

SSO

Sun Synchronous Orbit

Inclination

98.6

Latest

Satellite identification and parameters

Extended collection of information and parameters for SARAL.

Object identification

Identified? True

Debris? False

Object name: SARAL

International designator: 2013-009A

Object number (NORAD): 39086

Object ID (CCSDS): 39086

Country: INDIA (IND)

Current information (Y/N): Y

RCS size: LARGE

Orbital parameters

Period: 100.51 minutes

Inclination: 98.5535 deg

SMA: 7160.893 km

Apoapsis: 783.67 km

Periapsis: 781.846 km

RAAN: 13.8309 deg

Eccentricy: 0.0001274

Argument of periapsis: 189.1864 deg

Mean anomaly: 170.9296 deg

Mean motion: 14.32689164 rev/day

Mean motion (dot): 0.00000074 rev/day2

B* drag term: 0.00004342 1/REarth

Two-line elements (TLE)

Creation date: July 6, 2025, 10:26 p.m.

Reference frame: TEME

Reference center: EARTH

Epoch: July 6, 2025, 8:20 p.m. UTC

TLE line 0: 0 SARAL

TLE line 1: 1 39086U 13009A 25187.84752002 .00000074 00000-0 43420-4 0 9998

TLE line 2: 2 39086 98.5535 13.8309 0001274 189.1864 170.9296 14.32689164646158

Live tracking on map

Real-time ground track for satellite SARAL.

In-orbit conjunctions

There are no conjunctions computed for SARAL, at the moment. Check back to stay up to date, as we update our databases every day.

Go to all conjunctions

Associated space launch

SARAL or Satellite with ARgos and ALtiKa is a cooperative altimetry technology mission of Indian Space Research Organisation (ISRO) and CNES (Space Agency of France). SARAL is tasked to perform altimetric measurements designed to study ocean circulation and sea surface elevation.

SARAL was lifted into orbit during the mission ‘PSLV-CA | SARAL’, on board a PSLV space rocket.

The launch took place on Feb. 25, 2013, 12:31 p.m. from Satish Dhawan Space Centre First Launch Pad.

For more information about the launch, click the button.

Launch to space PSLV-CA | SARAL
PSLV-CA | SARAL

Agency: N/A

Status: Launch Successful

Launch date: Feb. 25, 2013, 12:31 p.m. UTC

Rocket: PSLV

Launch pad: Satish Dhawan Space Centre First Launch Pad

Location: Satish Dhawan Space Centre, India

...

Latest news about this satellite

There are no fresh news available about this satellite. Check back as we update our databases every day.


Newsletter sign-up

Weekly statistics, charts and insights to help you stay on top of the space industry.